Simultaneous Nadir Overpasses (SNOs) Predictions

Prediction of SNOs between GOES-17 and AQUA Satellite Orbit:

Table of predicted SNOs for the next 14.0 days since TLE Epoch: 3/20/2020
Index Date Time (GOES-17) GOES-17 Lat,Lon AQUA Lat,Lon Distance(km) Time Diff (sec)
1 03/20/2020 22:46:16 -0.00,-137.20 -0.13,-137.93 82.13 80
2 03/22/2020 22:36:45 0.00,-137.21 0.49,-134.97 254.75 80
3 03/23/2020 10:58:01 -0.00,-137.21 0.62,-140.13 331.57 80
4 03/25/2020 10:43:10 -0.00,-137.22 -0.00,-137.17 4.86 80
5 03/27/2020 10:30:59 -0.00,-137.21 -0.63,-134.22 340.52 80
6 03/27/2020 22:52:23 0.00,-137.21 -0.46,-139.41 250.07 80
7 03/29/2020 22:42:52 0.00,-137.20 0.17,-136.45 84.69 80
8 03/31/2020 22:30:41 0.00,-137.17 0.80,-133.50 418.51 80
9 04/01/2020 10:51:57 -0.00,-137.17 0.30,-138.65 168.37 80




NCC Satellite Simultaneous Nadir Overpasses (SNOs) Prediction Service
